LRCK Weather Reports


Display with metric or nautical units.
time (UTC)temp
F
wind
direction
speed
MPH
gust
MPH
rain 1hr
in
rain 24hr
in
rain mn
in
humidity
%
barometer
mb
20260904044817 66 10 6.0 0.0 0.00 0.00 0.00 94 1016.0
20260904043318 66 10 6.0 0.0 0.00 0.00 0.00 94 1016.0
20260904041817 63 350 6.0 0.0 0.00 0.00 0.00 100 1016.0
20260904040317 63 350 6.0 0.0 0.00 0.00 0.00 100 1016.0
20260904034817 63 10 6.0 0.0 0.00 0.00 0.00 94 1016.0
20260904033317 63 10 6.0 0.0 0.00 0.00 0.00 94 1016.0
20260904031818 63 340 2.0 0.0 0.00 0.00 0.00 94 1015.0
20260904030317 63 340 2.0 0.0 0.00 0.00 0.00 94 1015.0
20260904024818 64 330 2.0 0.0 0.00 0.00 0.00 94 1015.0
20260904023318 64 330 2.0 0.0 0.00 0.00 0.00 94 1015.0
20260904021817 66 320 5.0 0.0 0.00 0.00 0.00 88 1015.0
20260904020318 66 320 5.0 0.0 0.00 0.00 0.00 88 1015.0
20260904014851 66 310 7.0 0.0 0.00 0.00 0.00 94 1015.0
20260904013317 66 310 7.0 0.0 0.00 0.00 0.00 94 1015.0
20260904011818 64 320 6.0 0.0 0.00 0.00 0.00 100 1015.0
20260904010317 64 320 6.0 0.0 0.00 0.00 0.00 100 1015.0
20260904004818 64 330 5.0 0.0 0.00 0.00 0.00 100 1015.0
20260904003318 64 330 5.0 0.0 0.00 0.00 0.00 100 1015.0
20260904001817 66 300 6.0 0.0 0.00 0.00 0.00 94 1016.0
20260904000318 66 300 6.0 0.0 0.00 0.00 0.00 94 1016.0
20260903234817 66 310 5.0 0.0 0.00 0.00 0.00 94 1016.0
20260903233317 66 310 5.0 0.0 0.00 0.00 0.00 94 1016.0
20260903231839 66 290 3.0 0.0 0.00 0.00 0.00 94 1016.0
20260903230315 66 290 3.0 0.0 0.00 0.00 0.00 94 1016.0
20260903224815 66 320 3.0 0.0 0.00 0.00 0.00 94 1016.0
20260903223317 66 320 3.0 0.0 0.00 0.00 0.00 94 1016.0
20260903221817 66 280 5.0 0.0 0.00 0.00 0.00 94 1016.0
20260903220317 66 280 5.0 0.0 0.00 0.00 0.00 94 1016.0
20260903214817 66 270 3.0 0.0 0.00 0.00 0.00 94 1016.0
20260903213326 66 270 3.0 0.0 0.00 0.00 0.00 94 1016.0
20260903211821 68 290 3.0 0.0 0.00 0.00 0.00 94 1016.0
20260903210318 68 290 3.0 0.0 0.00 0.00 0.00 94 1016.0
20260903204929 68 2.0 0.0 0.00 0.00 0.00 94 1016.0
20260903203318 68 2.0 0.0 0.00 0.00 0.00 94 1016.0
20260903201817 68 2.0 0.0 0.00 0.00 0.00 94 1016.0
20260903200318 68 2.0 0.0 0.00 0.00 0.00 94 1016.0
20260903194818 68 250 3.0 0.0 0.00 0.00 0.00 88 1016.0
20260903193319 68 250 3.0 0.0 0.00 0.00 0.00 88 1016.0
20260903191817 70 0 0.0 0.0 0.00 0.00 0.00 88 1016.0
20260903190318 70 0 0.0 0.0 0.00 0.00 0.00 88 1016.0
20260903184817 70 1.0 0.0 0.00 0.00 0.00 88 1016.0
20260903183319 70 1.0 0.0 0.00 0.00 0.00 88 1016.0
20260903181817 70 140 2.0 0.0 0.00 0.00 0.00 88 1016.0
20260903180317 70 140 2.0 0.0 0.00 0.00 0.00 88 1016.0
20260903174817 72 150 6.0 0.0 0.00 0.00 0.00 83 1016.0
20260903173318 72 150 6.0 0.0 0.00 0.00 0.00 83 1016.0
20260903171818 72 140 5.0 0.0 0.00 0.00 0.00 83 1016.0
20260903170318 72 140 5.0 0.0 0.00 0.00 0.00 83 1016.0
20260903164817 75 120 5.0 0.0 0.00 0.00 0.00 74 1015.0
20260903163317 75 120 5.0 0.0 0.00 0.00 0.00 74 1015.0
20260903161817 77 110 7.0 0.0 0.00 0.00 0.00 69 1016.0
20260903160318 77 110 7.0 0.0 0.00 0.00 0.00 69 1016.0
20260903154818 77 110 8.0 0.0 0.00 0.00 0.00 65 1015.0
20260903153318 77 110 8.0 0.0 0.00 0.00 0.00 65 1015.0
20260903151818 79 110 10.0 0.0 0.00 0.00 0.00 65 1015.0
20260903150318 79 110 10.0 0.0 0.00 0.00 0.00 65 1015.0
20260903144817 81 110 10.0 0.0 0.00 0.00 0.00 54 1015.0
20260903143318 81 110 10.0 0.0 0.00 0.00 0.00 54 1015.0
20260903141818 81 110 10.0 0.0 0.00 0.00 0.00 54 1015.0
20260903140317 81 110 10.0 0.0 0.00 0.00 0.00 54 1015.0
20260903134818 82 80 9.0 0.0 0.00 0.00 0.00 51 1015.0
20260903133317 82 80 9.0 0.0 0.00 0.00 0.00 51 1015.0
20260903131817 82 90 10.0 0.0 0.00 0.00 0.00 51 1016.0
20260903130318 82 90 10.0 0.0 0.00 0.00 0.00 51 1016.0
20260903124817 81 90 11.0 0.0 0.00 0.00 0.00 58 1016.0
20260903123328 81 90 11.0 0.0 0.00 0.00 0.00 58 1016.0
20260903121817 82 100 13.0 0.0 0.00 0.00 0.00 55 1016.0
20260903120318 82 100 13.0 0.0 0.00 0.00 0.00 55 1016.0
20260903114818 81 100 9.0 0.0 0.00 0.00 0.00 62 1016.0
20260903113317 81 100 9.0 0.0 0.00 0.00 0.00 62 1016.0
20260903111819 81 80 9.0 0.0 0.00 0.00 0.00 54 1016.0
20260903110317 81 80 9.0 0.0 0.00 0.00 0.00 54 1016.0
20260903104817 82 70 9.0 0.0 0.00 0.00 0.00 55 1016.0
20260903103317 82 70 9.0 0.0 0.00 0.00 0.00 55 1016.0
20260903101818 84 40 7.0 0.0 0.00 0.00 0.00 48 1016.0
20260903100318 84 40 7.0 0.0 0.00 0.00 0.00 48 1016.0
20260903094817 82 5.0 0.0 0.00 0.00 0.00 48 1017.0
20260903093317 82 5.0 0.0 0.00 0.00 0.00 48 1017.0
20260903091834 82 3.0 0.0 0.00 0.00 0.00 51 1017.0
20260903090333 82 3.0 0.0 0.00 0.00 0.00 51 1017.0
20260903084817 79 20 6.0 0.0 0.00 0.00 0.00 54 1017.0
20260903083317 79 20 6.0 0.0 0.00 0.00 0.00 54 1017.0
20260903081817 79 110 5.0 0.0 0.00 0.00 0.00 58 1017.0
20260903080317 79 110 5.0 0.0 0.00 0.00 0.00 58 1017.0
20260903074818 77 90 6.0 0.0 0.00 0.00 0.00 57 1017.0
20260903073317 77 90 6.0 0.0 0.00 0.00 0.00 57 1017.0
20260903071817 75 2.0 0.0 0.00 0.00 0.00 61 1017.0
20260903070317 75 2.0 0.0 0.00 0.00 0.00 61 1017.0
20260903064817 73 40 3.0 0.0 0.00 0.00 0.00 65 1017.0
20260903063317 73 40 3.0 0.0 0.00 0.00 0.00 65 1017.0
20260903061817 75 10 5.0 0.0 0.00 0.00 0.00 65 1017.0
20260903060322 75 10 5.0 0.0 0.00 0.00 0.00 65 1017.0
20260903054822 72 10 6.0 0.0 0.00 0.00 0.00 73 1017.0
20260903053317 72 10 6.0 0.0 0.00 0.00 0.00 73 1017.0
20260903051818 70 330 3.0 0.0 0.00 0.00 0.00 73 1017.0
20260903050319 70 330 3.0 0.0 0.00 0.00 0.00 73 1017.0